Location: Kilfinan
(34.2040°S, 18.4016°E)
Time: 00:10:23
(UTC+00:00)

Daily predictions for brighter satellites

Satellite Brightness Start Highest point End
(mag) Time Altitude Azimuth Time Altitude Azimuth Time Altitude Azimuth
Atlas Centaur 2 4.0 02:50:29 18° NE 02:50:29 18° NE 02:51:39 10° ENE
Cosmos 2344 4.5 02:51:13 48° NNW 02:51:13 48° NNW 02:57:48 10° N
Cosmos 2237 Rocket 3.7 02:53:13 29° SE 02:54:31 32° ESE 02:59:31 10° NE
Cosmos 2297 Rocket 3.3 02:57:37 39° SE 02:57:37 39° SE 03:01:13 10° SSE
ATLAS 5 CENTAUR R/B 3.6 03:04:35 23° NE 03:04:35 23° NE 03:06:11 10° NE
Cosmos 2333 Rocket 4.0 03:11:00 20° N 03:11:00 20° N 03:12:45 10° N
Cosmos 1346 Rocket 4.2 03:19:24 38° E 03:19:24 38° E 03:22:42 10° NNE
Cosmos 1680 Rocket 3.5 03:22:17 76° NE 03:22:17 76° NE 03:27:08 10° NNE
ATLAS 3B R/B 2.7 03:20:54 62° WNW 03:22:05 73° WSW 03:29:35 10° SSE
MOS 1-B 4.4 03:20:31 10° NNE 03:26:20 77° ESE 03:29:29 29° S
CENTAUR R/B 3.7 03:30:00 32° SSW 03:30:00 32° SSW 03:34:42 10° SSE
DELTA 2 R/B (1) 4.0 03:28:38 49° S 03:28:40 49° S 03:34:09 10° ESE
BREEZE-M DEB (TANK) 3.8 03:19:34 10° NW 03:29:17 53° NNE 03:32:54 10° ESE
BREEZE-M DEB (TANK) 4.3 03:31:17 18° E 03:31:17 18° E 03:32:12 10° ESE
Cosmos 2227 Rocket 2.0 03:31:19 73° SW 03:31:19 73° SW 03:36:52 10° SSE
STARLINK-1058 4.4 03:34:24 46° SE 03:34:24 46° SE 03:38:22 10° ENE
SL-24 R/B - RUBIN 2 3.7 03:36:15 65° NNE 03:36:15 65° NNE 03:40:16 10° NNE
USA 215 4.2 03:31:36 10° SSE 03:36:41 30° SSW 03:36:41 30° SSW
OAO 3 Rocket 3.6 03:37:57 49° N 03:37:57 49° N 03:42:11 10° NE
CZ-4B R/B 3.8 03:32:46 10° NNE 03:37:58 54° ESE 03:43:11 10° S
STARLINK-1043 4.2 03:39:12 51° SE 03:39:20 51° SE 03:43:25 10° ENE
Iridium 4 Rocket 2.9 03:42:31 74° N 03:42:31 74° N 03:46:19 10° N
NOAA 6 4.1 03:37:08 10° NNE 03:42:18 76° ESE 03:46:22 17° S
Cosmos 1862 4.4 03:41:38 15° S 03:44:48 45° E 03:48:43 10° NNE
STARLINK-1104 4.3 03:45:47 32° N 03:47:23 53° NE 03:51:30 10° SE
STARLINK-1063 3.9 03:48:45 57° S 03:49:18 64° SE 03:53:27 10° NE
Delta 2 Rocket 4.0 03:49:01 53° W 03:50:27 85° NNW 03:56:14 10° ENE
Lacrosse 4 Rocket 3.9 03:48:11 10° NNE 03:51:18 22° ENE 03:54:27 10° SE
STARLINK-1144 4.1 03:50:35 31° NNW 03:52:21 60° NE 03:56:30 10° SE
STARLINK-1064 3.7 03:53:32 56° SSW 03:54:17 71° SE 03:58:27 10° NE
Okean O Rocket 1.7 03:52:10 10° NNE 03:56:30 76° ESE 04:00:06 15° S
Cosmos 2298 Rocket 4.4 03:51:15 10° N 03:56:31 67° ENE 04:01:52 10° SSE
STARLINK-1103 3.9 03:55:22 30° NNW 03:57:19 67° NE 04:01:30 10° SE
STARLINK-1041 3.6 03:58:19 52° SSW 03:59:15 79° SE 04:03:25 10° NE
Cosmos 2219 Rocket 4.0 04:02:44 15° NW 04:02:44 15° NW 04:04:02 10° NW
USA 32 4.3 04:01:16 40° WSW 04:02:02 42° W 04:06:56 10° NNW
STARLINK-1101 3.7 04:00:09 28° NW 04:02:16 76° NE 04:06:29 10° SE
OAO 2 Rocket 3.2 04:02:10 44° W 04:03:44 80° NNW 04:08:41 10° ENE
STARLINK-1038 3.5 04:03:07 48° SW 04:04:15 88° SE 04:08:26 10° NE
Cosmos 1937 Rocket 4.2 04:05:17 33° SW 04:05:17 33° SW 04:09:23 10° S
Cosmos 2285 Rocket 4.3 03:59:33 10° NW 04:05:30 43° WSW 04:11:32 10° S
USA 267 3.7 03:59:51 10° ENE 04:06:16 60° SE 04:11:38 16° SSW
STARLINK-1102 3.6 04:04:57 26° NW 04:07:16 85° NE 04:11:30 10° SE
H-2A R/B 2.5 04:03:49 10° NNE 04:07:31 88° WNW 04:09:55 21° SSW
STARLINK-1046 3.5 04:07:52 43° SW 04:09:11 83° NW 04:13:22 10° NE
Cosmos 1980 3.9 04:07:04 28° SW 04:09:46 51° WNW 04:15:14 10° N
STARLINK-1111 3.5 04:09:45 24° NW 04:12:14 87° SW 04:16:28 10° SE
STARLINK-1039 3.5 04:12:39 38° WSW 04:14:10 75° NW 04:18:19 10° NE
Cosmos 1535 Rocket 4.5 04:08:24 10° SSW 04:14:25 56° W 04:20:25 10° NNW
Lacrosse 5 rocket 3.7 04:15:58 12° NW 04:15:58 12° NW 04:16:39 10° NW
STARLINK-1073 3.5 04:14:32 21° NW 04:17:13 78° SW 04:21:27 10° SE
STARLINK-1045 3.6 04:17:28 34° WSW 04:19:09 66° NW 04:23:17 10° NE
DELTA 2 R/B(2) 4.2 04:19:31 40° SSE 04:19:31 40° SSE 04:21:18 10° E
Helios 1A Rocket 3.6 04:15:48 10° NNE 04:19:50 57° ESE 04:23:55 10° S
STARLINK-1121 3.5 04:19:18 19° NW 04:22:11 70° SW 04:26:23 10° SE
Cosmos 1151 Rocket 3.4 04:18:11 10° N 04:22:32 69° E 04:26:57 10° SSE
Cosmos 1805 Rocket 3.7 04:18:59 12° SSW 04:23:02 51° W 04:27:22 10° NNW
Cosmos 1125 Rocket 4.0 04:18:41 10° N 04:23:52 65° ENE 04:29:09 10° SSE
STARLINK-1050 3.7 04:22:15 30° WSW 04:24:07 59° NW 04:28:12 10° NNE
ADEOS Rocket 4.4 04:17:10 10° SSE 04:24:11 48° E 04:30:27 10° N
BREEZE-M DEB (TANK) 4.4 04:21:35 15° SW 04:25:55 30° SSE 04:28:34 10° E
STARLINK-1106 3.6 04:24:06 17° WNW 04:27:10 63° SW 04:31:21 10° SE
STARLINK-67 1.8 04:27:44 64° NNE 04:27:52 68° NE 04:29:49 10° SE
STARLINK-1055 3.9 04:27:03 26° WSW 04:29:06 52° NW 04:33:08 10° NNE
Envisat 3.0 04:24:10 10° NNE 04:29:16 89° W 04:34:27 10° SSW
STARLINK-1112 3.7 04:28:54 15° WNW 04:32:10 56° SW 04:36:19 10° SE
Geosat 4.0 04:28:29 10° NNE 04:33:30 86° WNW 04:38:36 10° SSW
STARLINK-1022 4.0 04:31:49 23° WSW 04:34:02 46° NW 04:38:01 10° NNE
Okean-O 4.3 04:30:34 10° NE 04:34:35 34° ESE 04:38:39 10° S
Atlas Centaur 2 3.4 04:33:05 12° WNW 04:35:28 17° NNW 04:38:08 10° NNE
STARLINK-1128 3.8 04:33:42 14° WNW 04:37:10 50° SW 04:41:16 10° SE
PSLV R/B 3.9 04:33:28 10° S 04:37:38 67° WSW 04:41:42 10° NNW
COSMO-SKYMED 1 3.3 04:33:41 10° SSE 04:38:02 58° E 04:42:20 10° N
IRS-1C Rocket 4.4 04:33:03 10° NNE 04:38:20 74° ESE 04:43:40 10° S
Cosmos 2237 Rocket 3.0 04:35:06 17° SW 04:38:26 29° WNW 04:43:13 10° NNW
STARLINK-1042 4.2 04:36:37 21° WSW 04:39:00 41° NW 04:42:55 10° NNE
CZ-4 R/B 3.7 04:36:08 10° ENE 04:39:12 22° ESE 04:42:16 10° SSE
Cosmos 1328 Rocket 3.4 04:35:07 10° N 04:39:29 76° W 04:43:52 10° S
Cosmos 2297 Rocket 3.6 04:39:33 16° WSW 04:40:04 17° SW 04:43:38 10° SSW
Cosmos 1606 2.6 04:36:35 10° NNW 04:40:22 65° W 04:44:17 10° S
Cosmos 1238 Rocket 2.3 04:37:47 10° S 04:40:50 77° E 04:44:07 10° N
STARLINK-1113 3.9 04:38:29 12° WNW 04:42:09 46° SW 04:46:13 10° SSE
Cosmos 2082 4.4 04:38:31 10° WNW 04:43:26 31° WSW 04:48:24 10° S
STARLINK-1056 4.4 04:41:23 18° WSW 04:43:57 36° NW 04:47:47 10° NNE
Cosmos 1605 Rocket 4.2 04:39:06 10° SSW 04:44:58 48° W 04:50:49 10° NNW
ISS -1.6 04:45:49 12° SW 04:46:15 13° SSW 04:47:52 10° S
STARLINK-1119 4.1 04:43:15 10° WNW 04:47:08 41° SW 04:51:09 10° SSE
Cosmos 1470 Rocket 4.3 04:43:19 10° S 04:47:44 58° E 04:52:01 10° NNE
OAO 3 Copernicus 4.3 04:46:25 13° W 04:50:57 82° S 04:56:04 10° E
SL-16 R/B 2.2 04:46:15 10° SSW 04:51:57 71° WNW 04:57:33 10° N
STARLINK-1114 4.2 04:48:14 10° WNW 04:52:09 38° SW 04:56:06 10° SSE
Cosmos 1689 Rocket 4.2 04:55:59 12° W 04:55:59 12° W 04:56:28 10° WNW
Cosmos 2263 Rocket 2.6 04:49:37 10° N 04:55:08 70° ENE 05:00:44 10° SSE
SMAP 3.6 04:51:58 10° NNW 04:56:18 38° W 05:00:43 10° SSW
STARLINK-1130 (DARKSAT) 4.3 04:53:17 10° WNW 04:57:08 34° SW 05:01:00 10° SSE
Cosmos 1727 Rocket 4.3 04:52:36 10° NNW 04:58:29 44° W 05:04:29 10° S
Cosmos 2227 4.3 04:54:30 10° NNW 05:00:16 88° WSW 05:06:05 10° SSE
Cosmos 1933 3.6 04:56:40 10° NNW 05:00:32 44° W 05:04:27 10° S
Cosmos 1441 Rocket 3.3 04:57:32 10° S 05:01:23 79° E 05:05:07 10° N
STARLINK-1084 4.5 04:58:22 10° WNW 05:02:08 31° SW 05:05:56 10° SSE
STARLINK-1175 2.4 05:05:46 10° SW 05:08:27 73° NW 05:11:05 10° NE
STARLINK-1173 3.7 05:10:00 10° SW 05:13:37 61° SE 05:17:12 10° NE
ATLAS 3B R/B 4.3 05:09:42 10° WSW 05:14:08 16° SW 05:18:35 10° S
YAOGAN 6 3.7 05:12:07 10° NNW 05:15:13 26° W 05:18:21 10° SW
DELTA 2 R/B (1) 3.7 05:09:53 10° WSW 05:15:33 78° SSE 05:21:11 10° ENE
Meteor 1-25 Rocket 4.3 05:10:27 10° S 05:16:13 84° W 05:22:00 10° N
